Time,TemperatureF,DewpointF,PressureIn,WindDirection,WindDirectionDegrees,WindSpeedMPH,WindSpeedGustMPH,Humidity,HourlyPrecipIn,Conditions,Clouds,dailyrainin,SoftwareType,DateUTC
2013-09-28 00:00:00,56.9,20.5,30.12,WNW,288,0.0,0.0,24,0.00,,,0.00,WeatherTracker,2013-09-28 07:00:00,
2013-09-28 00:15:00,56.9,20.5,30.11,WNW,289,0.0,0.0,24,0.00,,,0.00,WeatherTracker,2013-09-28 07:15:00,
2013-09-28 00:30:00,56.8,20.4,30.11,WNW,287,0.0,0.0,24,0.00,,,0.00,WeatherTracker,2013-09-28 07:30:00,
2013-09-28 00:45:00,56.6,20.2,30.11,WNW,286,0.0,0.0,24,0.00,,,0.00,WeatherTracker,2013-09-28 07:45:00,
2013-09-28 01:00:00,56.5,21.1,30.12,WNW,286,0.0,0.0,25,0.00,,,0.00,WeatherTracker,2013-09-28 08:00:00,
2013-09-28 01:15:00,56.8,20.4,30.11,WNW,286,0.0,0.0,24,0.00,,,0.00,WeatherTracker,2013-09-28 08:15:00,
2013-09-28 01:30:00,55.7,22.2,30.12,WNW,286,0.0,0.0,27,0.00,,,0.00,WeatherTracker,2013-09-28 08:30:00,
2013-09-28 01:45:00,54.2,21.8,30.12,WNW,286,0.0,0.0,28,0.00,,,0.00,WeatherTracker,2013-09-28 08:45:00,
2013-09-28 02:00:00,53.2,23.4,30.12,WNW,286,0.0,0.0,31,0.00,,,0.00,WeatherTracker,2013-09-28 09:00:00,
2013-09-28 02:15:00,52.3,22.6,30.12,WNW,286,0.0,0.0,31,0.00,,,0.00,WeatherTracker,2013-09-28 09:15:00,
2013-09-28 02:30:00,52.2,23.2,30.12,WNW,286,0.0,0.0,32,0.00,,,0.00,WeatherTracker,2013-09-28 09:30:00,
2013-09-28 02:45:00,52.0,23.1,30.11,WNW,286,0.0,0.0,32,0.00,,,0.00,WeatherTracker,2013-09-28 09:45:00,
2013-09-28 03:00:00,51.9,23.7,30.11,WNW,283,0.0,0.0,33,0.00,,,0.00,WeatherTracker,2013-09-28 10:00:00,
2013-09-28 03:15:00,51.3,20.9,30.11,WNW,284,0.0,0.0,30,0.00,,,0.00,WeatherTracker,2013-09-28 10:15:00,
2013-09-28 03:30:00,52.0,21.5,30.10,WNW,283,0.0,0.0,30,0.00,,,0.00,WeatherTracker,2013-09-28 10:30:00,
2013-09-28 03:45:00,51.8,20.6,30.11,WNW,284,0.0,0.0,29,0.00,,,0.00,WeatherTracker,2013-09-28 10:45:00,
2013-09-28 04:00:00,52.0,23.8,30.11,WNW,284,0.0,0.0,33,0.00,,,0.00,WeatherTracker,2013-09-28 11:00:00,
2013-09-28 04:15:00,50.8,22.7,30.12,WNW,284,0.0,0.0,33,0.00,,,0.00,WeatherTracker,2013-09-28 11:15:00,
2013-09-28 04:30:00,50.4,23.1,30.12,WNW,283,0.0,0.0,34,0.00,,,0.00,WeatherTracker,2013-09-28 11:30:00,
2013-09-28 04:45:00,49.6,23.8,30.12,WNW,284,0.0,0.0,36,0.00,,,0.00,WeatherTracker,2013-09-28 11:45:00,
2013-09-28 05:00:00,49.7,21.8,30.12,WNW,284,0.0,0.0,33,0.00,,,0.00,WeatherTracker,2013-09-28 12:00:00,
2013-09-28 05:15:00,48.8,24.3,30.14,WNW,284,0.0,0.0,38,0.00,,,0.00,WeatherTracker,2013-09-28 12:15:00,
2013-09-28 05:30:00,47.9,26.5,30.14,WNW,283,0.0,0.0,43,0.00,,,0.00,WeatherTracker,2013-09-28 12:30:00,
2013-09-28 05:45:00,47.6,25.7,30.14,WNW,284,0.0,0.0,42,0.00,,,0.00,WeatherTracker,2013-09-28 12:45:00,
2013-09-28 06:00:00,47.7,22.7,30.14,WNW,284,0.0,0.0,37,0.00,,,0.00,WeatherTracker,2013-09-28 13:00:00,
2013-09-28 06:15:00,47.4,24.3,30.16,WNW,284,0.0,0.0,40,0.00,,,0.00,WeatherTracker,2013-09-28 13:15:00,
2013-09-28 06:30:00,46.8,23.2,30.16,WNW,283,0.0,0.0,39,0.00,,,0.00,WeatherTracker,2013-09-28 13:30:00,
2013-09-28 06:45:00,46.9,22.6,30.16,WNW,284,0.0,0.0,38,0.00,,,0.00,WeatherTracker,2013-09-28 13:45:00,
2013-09-28 07:00:00,47.0,23.9,30.17,WNW,284,0.0,0.0,40,0.00,,,0.00,WeatherTracker,2013-09-28 14:00:00,
2013-09-28 07:15:00,48.0,26.6,30.18,WNW,283,0.0,0.0,43,0.00,,,0.00,WeatherTracker,2013-09-28 14:15:00,
2013-09-28 07:30:00,49.4,24.2,30.18,WNW,283,0.0,0.0,37,0.00,,,0.00,WeatherTracker,2013-09-28 14:30:00,
2013-09-28 07:45:00,51.0,22.2,30.17,WNW,283,0.0,0.0,32,0.00,,,0.00,WeatherTracker,2013-09-28 14:45:00,
2013-09-28 08:00:00,52.9,22.3,30.17,WNW,284,0.0,0.0,30,0.00,,,0.00,WeatherTracker,2013-09-28 15:00:00,
2013-09-28 08:15:00,55.7,23.1,30.18,WNW,283,0.0,0.0,28,0.00,,,0.00,WeatherTracker,2013-09-28 15:15:00,
2013-09-28 08:30:00,57.7,22.1,30.18,WNW,284,0.0,0.0,25,0.00,,,0.00,WeatherTracker,2013-09-28 15:30:00,
2013-09-28 08:45:00,60.0,22.1,30.18,West,275,0.0,0.0,23,0.00,,,0.00,WeatherTracker,2013-09-28 15:45:00,
2013-09-28 09:00:00,62.2,25.0,30.17,West,275,0.0,0.0,24,0.00,,,0.00,WeatherTracker,2013-09-28 16:00:00,
2013-09-28 09:15:00,65.1,24.2,30.18,West,275,0.0,0.0,21,0.00,,,0.00,WeatherTracker,2013-09-28 16:15:00,
2013-09-28 09:30:00,67.0,25.8,30.17,West,275,0.0,0.0,21,0.00,,,0.00,WeatherTracker,2013-09-28 16:30:00,
2013-09-28 09:45:00,68.8,23.6,30.17,NW,320,0.0,0.0,18,0.00,,,0.00,WeatherTracker,2013-09-28 16:45:00,
2013-09-28 10:00:00,69.7,24.3,30.17,NNW,338,0.0,0.0,18,0.00,,,0.00,WeatherTracker,2013-09-28 17:00:00,
2013-09-28 10:15:00,71.7,23.1,30.16,North,10,0.0,0.0,16,0.00,,,0.00,WeatherTracker,2013-09-28 17:15:00,
2013-09-28 10:30:00,73.0,25.6,30.16,North,9,0.0,0.0,17,0.00,,,0.00,WeatherTracker,2013-09-28 17:30:00,
2013-09-28 10:45:00,73.4,22.9,30.16,NNE,17,3.0,0.0,15,0.00,,,0.00,WeatherTracker,2013-09-28 17:45:00,
2013-09-28 11:00:00,73.1,25.7,30.16,ENE,76,0.0,0.0,17,0.00,,,0.00,WeatherTracker,2013-09-28 18:00:00,
2013-09-28 11:15:00,74.0,23.4,30.16,East,79,0.0,0.0,15,0.00,,,0.00,WeatherTracker,2013-09-28 18:15:00,
2013-09-28 11:30:00,74.6,23.9,30.15,ESE,105,0.0,0.0,15,0.00,,,0.00,WeatherTracker,2013-09-28 18:30:00,
2013-09-28 11:45:00,75.8,23.2,30.15,East,91,0.0,0.0,14,0.00,,,0.00,WeatherTracker,2013-09-28 18:45:00,
2013-09-28 12:00:00,76.3,25.2,30.15,SSE,167,0.0,0.0,15,0.00,,,0.00,WeatherTracker,2013-09-28 19:00:00,
2013-09-28 12:15:00,76.6,25.5,30.13,SE,145,0.0,0.0,15,0.00,,,0.00,WeatherTracker,2013-09-28 19:15:00,
2013-09-28 12:45:00,78.7,25.5,30.12,North,360,2.0,0.0,14,0.00,,,0.00,WeatherTracker,2013-09-28 19:45:00,
2013-09-28 13:00:00,78.5,23.6,30.12,NNE,28,0.0,0.0,13,0.00,,,0.00,WeatherTracker,2013-09-28 20:00:00,
2013-09-28 13:15:00,77.8,24.8,30.12,East,86,9.0,0.0,14,0.00,,,0.00,WeatherTracker,2013-09-28 20:15:00,
2013-09-28 13:30:00,78.2,23.3,30.12,ESE,104,0.0,0.0,13,0.00,,,0.00,WeatherTracker,2013-09-28 20:30:00,
2013-09-28 13:45:00,78.7,21.8,30.10,NE,42,5.0,0.0,12,0.00,,,0.00,WeatherTracker,2013-09-28 20:45:00,
2013-09-28 14:00:00,78.7,21.8,30.10,SE,141,6.0,0.0,12,0.00,,,0.00,WeatherTracker,2013-09-28 21:00:00,
2013-09-28 14:15:00,80.2,20.9,30.09,WSW,250,0.0,0.0,11,0.00,,,0.00,WeatherTracker,2013-09-28 21:15:00,
2013-09-28 14:30:00,81.2,23.8,30.09,SSE,160,3.0,0.0,12,0.00,,,0.00,WeatherTracker,2013-09-28 21:30:00,
2013-09-28 14:45:00,80.9,21.5,30.08,ESE,105,0.0,0.0,11,0.00,,,0.00,WeatherTracker,2013-09-28 21:45:00,
2013-09-28 15:00:00,81.3,21.8,30.07,East,96,0.0,0.0,11,0.00,,,0.00,WeatherTracker,2013-09-28 22:00:00,
2013-09-28 15:15:00,81.8,22.2,30.06,SE,132,4.0,0.0,11,0.00,,,0.00,WeatherTracker,2013-09-28 22:15:00,
2013-09-28 15:30:00,82.5,22.7,30.06,East,87,0.0,0.0,11,0.00,,,0.00,WeatherTracker,2013-09-28 22:30:00,
2013-09-28 15:45:00,81.8,22.2,30.06,SE,137,0.0,0.0,11,0.00,,,0.00,WeatherTracker,2013-09-28 22:45:00,
2013-09-28 16:00:00,83.6,23.5,30.05,SW,225,0.0,0.0,11,0.00,,,0.00,WeatherTracker,2013-09-28 23:00:00,
2013-09-28 16:15:00,83.9,21.5,30.05,NE,41,0.0,0.0,10,0.00,,,0.00,WeatherTracker,2013-09-28 23:15:00,
2013-09-28 16:30:00,82.6,22.8,30.05,NW,313,0.0,0.0,11,0.00,,,0.00,WeatherTracker,2013-09-28 23:30:00,
2013-09-28 16:45:00,82.9,23.0,30.05,NNW,341,0.0,0.0,11,0.00,,,0.00,WeatherTracker,2013-09-28 23:45:00,
2013-09-28 17:00:00,82.2,22.5,30.04,SSE,157,2.0,0.0,11,0.00,,,0.00,WeatherTracker,2013-09-29 00:00:00,
2013-09-28 17:15:00,82.4,22.6,30.05,WSW,238,4.0,0.0,11,0.00,,,0.00,WeatherTracker,2013-09-29 00:15:00,
2013-09-28 17:30:00,82.4,22.6,30.04,South,172,0.0,0.0,11,0.00,,,0.00,WeatherTracker,2013-09-29 00:30:00,
2013-09-28 17:45:00,82.0,22.3,30.04,SW,234,0.0,0.0,11,0.00,,,0.00,WeatherTracker,2013-09-29 00:45:00,
2013-09-28 18:00:00,81.2,21.7,30.04,SW,217,3.0,0.0,11,0.00,,,0.00,WeatherTracker,2013-09-29 01:00:00,
2013-09-28 18:15:00,80.4,23.1,30.05,SSW,210,0.0,0.0,12,0.00,,,0.00,WeatherTracker,2013-09-29 01:15:00,
2013-09-28 18:30:00,78.8,21.9,30.05,SW,214,0.0,0.0,12,0.00,,,0.00,WeatherTracker,2013-09-29 01:30:00,
2013-09-28 18:45:00,77.6,22.9,30.06,SW,214,0.0,0.0,13,0.00,,,0.00,WeatherTracker,2013-09-29 01:45:00,
2013-09-28 19:00:00,76.4,21.9,30.07,SSW,211,0.0,0.0,13,0.00,,,0.00,WeatherTracker,2013-09-29 02:00:00,
2013-09-28 19:15:00,75.5,23.0,30.05,SSW,211,0.0,0.0,14,0.00,,,0.00,WeatherTracker,2013-09-29 02:15:00,
2013-09-28 19:30:00,73.9,24.9,30.07,SSW,211,0.0,0.0,16,0.00,,,0.00,WeatherTracker,2013-09-29 02:30:00,
2013-09-28 19:45:00,72.5,22.2,30.07,SSW,212,0.0,0.0,15,0.00,,,0.00,WeatherTracker,2013-09-29 02:45:00,
2013-09-28 20:00:00,70.9,22.5,30.09,SSW,212,0.0,0.0,16,0.00,,,0.00,WeatherTracker,2013-09-29 03:00:00,
2013-09-28 20:15:00,69.6,22.9,30.07,SSW,212,0.0,0.0,17,0.00,,,0.00,WeatherTracker,2013-09-29 03:15:00,
2013-09-28 20:30:00,68.6,23.4,30.08,SSW,212,0.0,0.0,18,0.00,,,0.00,WeatherTracker,2013-09-29 03:30:00,
2013-09-28 20:45:00,69.8,21.6,30.08,SSW,211,0.0,0.0,16,0.00,,,0.00,WeatherTracker,2013-09-29 03:45:00,
2013-09-28 21:00:00,70.0,20.2,30.08,SW,221,0.0,0.0,15,0.00,,,0.00,WeatherTracker,2013-09-29 04:00:00,
2013-09-28 21:15:00,70.2,21.9,30.07,SSW,199,0.0,0.0,16,0.00,,,0.00,WeatherTracker,2013-09-29 04:15:00,
2013-09-28 21:30:00,70.2,20.4,30.07,SW,225,0.0,0.0,15,0.00,,,0.00,WeatherTracker,2013-09-29 04:30:00,
2013-09-28 21:45:00,69.7,21.5,30.07,WSW,237,0.0,0.0,16,0.00,,,0.00,WeatherTracker,2013-09-29 04:45:00,
2013-09-28 22:00:00,68.8,20.8,30.07,SW,236,0.0,0.0,16,0.00,,,0.00,WeatherTracker,2013-09-29 05:00:00,
2013-09-28 22:15:00,67.8,21.4,30.05,SW,234,0.0,0.0,17,0.00,,,0.00,WeatherTracker,2013-09-29 05:15:00,
2013-09-28 22:30:00,67.0,22.1,30.06,SW,232,0.0,0.0,18,0.00,,,0.00,WeatherTracker,2013-09-29 05:30:00,
2013-09-28 22:45:00,66.4,20.3,30.08,SW,216,0.0,0.0,17,0.00,,,0.00,WeatherTracker,2013-09-29 05:45:00,
2013-09-28 23:00:00,66.1,20.0,30.09,SW,216,0.0,0.0,17,0.00,,,0.00,WeatherTracker,2013-09-29 06:00:00,
2013-09-28 23:15:00,64.8,21.6,30.08,SW,217,0.0,0.0,19,0.00,,,0.00,WeatherTracker,2013-09-29 06:15:00,
2013-09-28 23:30:00,64.8,20.3,30.08,SW,221,0.0,0.0,18,0.00,,,0.00,WeatherTracker,2013-09-29 06:30:00,
2013-09-28 23:45:00,63.5,20.5,30.08,SW,221,0.0,0.0,19,0.00,,,0.00,WeatherTracker,2013-09-29 06:45:00,